Home   Weather   Amsterdam   Past weeks

Flag for Netherlands Past Weather in Amsterdam, Netherlands — Yesterday and Last 2 Weeks

46 °F

Partly sunny.

Feels Like: 45 °F
Forecast: 43 / 48 °F
Wind: 3 mph from Southeast

Location: Amsterdam Schiphol Airport

Current Time: Oct 23, 2016 at 11:50:56 AM

Latest Report: Oct 23, 2016 at 11:25 AM

Visibility: 4 mi

Pressure: 29.92 "Hg

Humidity: 87%

Dew Point: 43 °F

Location of AmsterdamLocation

Past Weather in Amsterdam — Graph


Amsterdam Temperature Yesterday

Maximum temperature yesterday: 50 °F (at 1:25 PM)
Minimum temperature yesterday: 39 °F (at 10:25 PM)
Average temperature yesterday: 45 °F

High & Low Weather Summary for the Past Weeks

High66 °F (Oct 16, 2:55 PM)100% (Oct 9, 1:25 AM)30.33 "Hg (Oct 9, 1:25 AM)
Low34 °F (Oct 23, 4:55 AM)48% (Oct 8, 2:25 PM)29.65 "Hg (Oct 15, 1:25 AM)
Average50 °F85%30.04 "Hg
* Reported Oct 8 10:25 AM — Oct 23 10:55 AM, Amsterdam, Weather by CustomWeather, © 2016

Note: Actual official high and low records may vary slightly from our data, if they occured in-between our weather recording intervals... More about our weather records


Amsterdam Weather History for the Previous 24 Hours

Scroll right to see more
Time TempWeatherWind HumidityBarometerVisibility
10:55 AM
Sun, Oct 23
45 °FScattered clouds.3 mph87%29.95 "Hg4 mi
10:25 AM43 °FScattered clouds.3 mph93%29.95 "Hg4 mi
9:55 AM39 °FPartly sunny.3 mph100%29.95 "Hg4 mi
9:25 AM37 °FChilly.1 mph93%29.95 "Hg2 mi
8:55 AM36 °FChilly.2 mph100%29.92 "Hg1 mi
8:25 AM34 °FFog.2 mph100%29.92 "Hg1 mi
7:55 AM34 °FFog.1 mph100%29.92 "Hg1 mi
7:25 AM34 °FFog.1 mph100%29.92 "Hg0 mi
6:55 AM34 °FFog.2 mph100%29.92 "Hg0 mi
6:25 AM34 °FFog.2 mph93%29.92 "Hg1 mi
5:55 AM34 °FFog.2 mph100%29.92 "Hg1 mi
5:25 AM34 °FFog.2 mph100%29.95 "Hg1 mi
4:55 AM34 °FFog.2 mph100%29.95 "Hg2 mi
3:55 AM37 °FFog.2 mph93%29.95 "Hg3 mi
3:25 AM37 °FFog.2 mph93%29.95 "Hg4 mi
2:55 AM37 °FLight fog.1 mph93%29.95 "Hg4 mi
2:25 AM37 °FLight fog.3 mph93%29.98 "Hg4 mi
1:55 AM36 °FLight fog.2 mph100%29.98 "Hg4 mi
1:25 AM37 °FLight fog.1 mph100%29.98 "Hg4 mi
12:55 AM37 °FLight fog.1 mph100%29.98 "Hg5 mi
12:25 AM39 °FFog.1 mph100%29.98 "Hg5 mi
11:55 PM
Sat, Oct 22
41 °FFog.3 mph93%29.98 "Hg5 mi
11:25 PM39 °FFog.2 mph100%29.98 "Hg5 mi
10:55 PM39 °FFog.1 mph93%29.98 "Hg6 mi
10:25 PM39 °FFog.2 mph100%29.98 "Hg6 mi
9:55 PM41 °FFog.2 mph100%29.98 "Hg5 mi
9:25 PM41 °FFog.1 mph100%29.98 "Hg6 mi
8:55 PM43 °FPassing clouds.No wind93%29.98 "Hg6 mi
8:25 PM43 °FPassing clouds.1 mph93%29.98 "HgN/A
7:55 PM43 °FPassing clouds.2 mph93%29.98 "HgN/A
7:25 PM43 °FPassing clouds.2 mph93%29.98 "HgN/A
6:55 PM46 °FPassing clouds.No wind82%29.98 "HgN/A
6:25 PM46 °FPassing clouds.3 mph76%29.98 "HgN/A
5:55 PM48 °FPassing clouds.2 mph71%29.98 "HgN/A
5:25 PM50 °FPassing clouds.5 mph71%29.98 "HgN/A
4:55 PM50 °FPassing clouds.5 mph71%29.98 "HgN/A
4:25 PM50 °FPassing clouds.5 mph71%29.98 "HgN/A
3:55 PM50 °FPassing clouds.2 mph71%29.98 "HgN/A
3:25 PM50 °FPassing clouds.3 mph71%29.98 "HgN/A
2:55 PM50 °FPassing clouds.7 mph71%29.98 "HgN/A
2:25 PM50 °FPassing clouds.8 mph76%29.98 "HgN/A
1:55 PM50 °FPassing clouds.7 mph76%29.98 "HgN/A
1:25 PM50 °FPassing clouds.6 mph76%29.98 "HgN/A
12:55 PM48 °FPassing clouds.5 mph82%29.98 "HgN/A
12:25 PM48 °FScattered clouds.6 mph82%29.98 "HgN/A
11:55 AM46 °FScattered clouds.6 mph87%29.98 "HgN/A
11:25 AM48 °FScattered clouds.6 mph87%29.98 "HgN/A
Weather by CustomWeather, © 2016

See weather overviewHow to use our weather pages